Location: Casco Volunteer Fire Department
(44.5576°N, 87.6146°W)
Time: 05:02:16
(UTC+00:00)

SL-8 R/B - Pass Details

Date: 22 January 2026
Orbit: 646 x 656 km, 48.4° (Epoch: 11 February)

Event Time Altitude Azimuth Distance (km) Brightness Sun altitude
Exits shadow 12:02:39 12° 243° (WSW) 1,914 5.6 -13.5°
Maximum altitude 12:07:02 84° 156° (SSE) 655 3.7 -12.8°
Drops below altitude 10° 12:11:45 10° 68° (ENE) 2,046 7.1 -11.9°
Sets 12:14:05 0° 68° (ENE) 2,958 7.9 -11.5°
